Location: Newark
(42.9858°N, 0.6717°E)
Time: 17:27:46
(UTC+00:00)

S-56A Canister/Altair - Pass Details

Date: 24 November 2019
Orbit: 633 x 2499 km, 38.9° (Epoch: 06 December)

Event Time Altitude Azimuth Distance (km) Brightness Sun altitude
Rises 12:31:25 0° 196° (SSW) 6,137 13.5 25.5°
Reaches altitude 10° 12:37:00 10° 182° (S) 5,008 13.4 25.3°
Maximum altitude 12:46:13 21° 141° (SE) 3,777 11.7 24.9°
Drops below altitude 10° 12:53:55 10° 98° (E) 4,127 11.2 24.5°
Sets 12:57:52 0° 84° (E) 4,812 11.4 24.2°
